カタログに戻る

FENGYUN 1C DEB

運用中SSO
NORAD 36710·DEBRIS·🇨🇳 China

打ち上げ May 10, 1999 から Taiyuan Satellite Launch Center

Loading…

次のパス (今後24時間)

TLE

最新Source: Space-Track

元期: Sep 13, 2026, 21:35 UTC

1 36710U 99025EAG 26256.89936691  .00002992  00000-0  72727-3 0  9994
2 36710  98.3544 317.6335 0065201  61.3227 299.4503 14.52285501689441

AllMySatでFENGYUN 1C DEBをリアルタイム追跡

Download on the App Store